Wind_Speed
3 2 1 1 1 1 2 3 4 3 3 2 2 2 2 0 2 4 4 2 2 3 6 3 2 3 5 4 5 8 3 9 12 12 11 9 9 8 11 12 8 5 19 24 24
3 2 1 1 2 2 2 3 4 4 4 3 3 3 2 2 2 3 1 3 4 7 8 4 2 9 6 6 5 7 11 12 11 15 11 5 12 9 10 11 10 12 24 25 24
4 3 2 1 2 2 2 3 4 4 4 4 4 4 3 3 4 4 1 2 4 5 5 2 5 11 11 14 9 17 9 12 10 13 11 9 11 6 10 9 10 17 23 24 23
4 4 3 2 2 2 3 3 4 4 4 5 5 5 4 3 0 3 1 1 3 5 4 11 12 2 9 11 2 15 7 10 10 6 4 13 8 8 7 9 14 16 23 24 22
5 4 5 3 3 2 3 3 4 4 5 5 5 6 5 7 4 5 3 3 2 5 5 8 13 10 9 8 9 10 9 8 8 7 6 4 5 9 11 9 16 17 21 21 20
5 4 5 5 3 3 3 3 4 5 5 5 6 7 6 13 2 3 5 3 1 2 5 9 10 8 8 8 8 6 7 11 7 7 8 7 7 6 10 14 17 18 20 19 18
5 5 4 4 4 3 3 3 4 6 6 5 5 7 7 2 4 5 7 5 4 3 7 8 10 14 8 3 4 3 12 13 11 6 7 5 7 12 14 16 17 17 18 18 17
5 5 4 4 4 4 4 3 4 5 6 6 6 6 2 4 6 6 7 6 6 4 5 7 12 12 5 4 8 10 13 10 9 10 10 9 11 12 16 16 17 17 18 19 18
5 5 4 4 3 4 4 3 3 4 5 6 4 5 6 7 7 8 8 5 5 5 5 6 11 10 12 14 9 5 8 9 10 1 1 17 14 14 15 17 17 18 19 19 19
6 5 5 4 3 2 1 1 1 3 4 5 5 6 9 12 11 8 9 7 6 5 9 9 12 12 14 7 8 2 9 7 7 4 5 4 17 13 15 16 19 18 20 20 21
7 5 5 3 2 1 4 1 2 4 12 7 8 5 5 8 9 9 8 8 8 10 14 10 10 15 9 5 4 5 5 4 6 3 10 2 6 18 14 13 17 19 20 21 22
8 5 5 2 2 4 6 4 3 3 9 15 8 8 5 7 12 12 10 11 13 14 13 7 12 2 4 5 7 6 8 2 3 2 7 8 9 8 18 14 14 18 19 21 21
7 6 3 2 3 6 3 2 1 3 8 17 16 14 12 10 15 19 14 14 14 13 11 15 7 10 6 8 10 13 7 9 9 9 14 7 13 11 10 14 15 14 17 21 23
7 5 3 3 4 4 4 3 3 2 6 14 15 11 13 11 16 9 15 14 11 12 12 9 7 3 10 12 7 11 4 4 9 9 7 4 7 5 6 12 11 16 18 20 23
8 5 5 11 6 6 4 2 2 3 6 16 19 11 15 17 10 17 12 12 14 12 6 3 7 9 12 11 4 12 7 9 10 11 12 8 6 8 10 12 14 14 16 19 21
8 6 6 7 8 3 3 3 3 7 6 10 13 14 15 20 10 13 13 15 10 12 9 16 1 6 12 2 8 10 12 16 11 11 8 6 10 11 11 6 5 7 6 10 18
8 8 10 10 5 6 4 6 7 10 11 11 17 19 19 14 14 12 16 16 11 11 14 14 12 12 9 12 11 11 18 11 6 6 11 6 7 12 8 6 5 6 8 10 15
9 9 11 15 8 9 5 9 11 10 12 9 14 19 19 16 15 14 16 15 18 16 9 10 13 14 11 16 9 2 13 7 4 3 10 5 2 9 6 11 8 7 5 7 11
8 6 9 9 14 13 12 12 10 11 7 7 14 15 18 18 11 14 18 16 16 14 10 12 8 5 5 6 10 6 5 9 11 10 7 7 6 9 8 11 12 12 11 9 4
4 7 8 12 13 12 11 17 16 4 12 8 16 16 18 18 12 15 16 16 13 17 17 4 7 11 8 6 7 12 9 8 5 1 6 9 6 10 8 9 10 12 13 11 9
5 8 10 10 13 16 12 18 17 6 8 11 17 13 17 16 18 17 14 10 15 15 11 6 11 8 10 10 11 9 10 4 3 4 4 4 9 11 7 5 8 15 13 11 10
8 8 6 15 15 19 14 21 1 11 12 13 10 14 16 17 18 16 13 10 19 20 14 14 5 12 15 6 4 7 9 10 5 3 4 3 2 10 5 3 9 12 12 10 8
12 11 6 16 10 13 20 19 8 14 12 13 12 12 10 15 14 15 13 7 16 12 13 12 11 11 7 9 7 10 7 7 7 7 4 7 8 8 10 8 10 11 9 8 7
8 6 8 17 23 16 14 17 16 18 18 11 11 15 11 16 16 14 14 9 14 18 2 6 17 8 10 11 10 13 7 5 10 7 9 2 7 8 7 4 7 7 6 5 4
11 9 2 9 16 17 16 11 18 18 16 15 14 13 15 15 19 13 13 14 13 7 6 11 15 12 11 3 3 4 8 8 9 7 10 12 3 5 6 6 6 9 8 2 3
8 9 6 17 11 19 15 14 13 16 13 16 16 17 17 15 16 14 19 14 17 11 14 16 15 9 10 7 8 10 9 10 10 9 9 7 9 7 5 2 2 8 8 6 3
5 11 10 10 15 12 16 14 14 16 15 21 11 18 19 16 17 16 16 19 18 14 18 17 13 8 12 12 10 14 13 14 13 8 9 11 8 6 4 9 8 8 5 5 5
Wind_Direction
348 357 23 305 281 255 254 247 227 223 222 233 231 236 243 151 96 81 64 110 53 21 100 106 181 220 233 207 252 262 53 73 65 88 110 146 126 60 102 138 73 81 137 148 150
339 335 339 323 290 276 260 251 228 219 207 221 224 227 227 193 174 208 173 45 39 75 79 328 177 205 165 123 238 189 71 62 74 93 109 120 112 117 144 118 102 104 124 147 152
335 325 320 302 281 273 258 245 240 221 207 206 218 218 218 212 250 110 166 38 27 76 27 329 262 274 92 68 35 61 80 98 73 86 73 94 101 162 118 155 139 135 145 154 157
333 320 308 302 285 276 262 246 239 228 214 204 210 215 214 251 40 175 210 116 21 51 335 311 258 274 54 82 53 95 82 91 109 125 131 84 117 111 42 99 135 145 155 159 164
331 324 312 310 297 276 267 250 240 232 217 204 203 208 209 227 84 166 176 141 25 12 338 335 31 359 58 44 80 82 109 111 114 146 114 122 82 110 90 112 130 143 158 165 169
325 325 319 311 302 285 270 257 241 232 219 207 197 203 216 253 116 197 160 153 194 301 350 12 1 335 348 66 31 75 112 129 144 141 140 143 115 172 115 134 140 152 164 170 174
322 321 325 312 302 287 271 255 237 224 220 202 196 201 249 10 160 181 180 195 232 268 325 353 346 334 333 92 28 227 140 151 158 172 126 193 143 99 136 147 153 163 168 171 175
321 320 322 315 303 291 274 254 239 223 212 195 190 184 259 162 177 182 187 215 230 252 290 328 328 296 292 266 192 227 187 106 115 199 125 357 112 131 151 158 161 168 173 177 180
313 315 318 309 298 294 288 264 236 211 198 181 158 201 220 196 200 204 201 232 230 245 273 307 302 287 260 251 204 218 63 114 127 84 322 184 116 147 167 165 170 173 179 183 185
307 308 310 308 298 297 296 142 148 183 174 164 218 220 212 210 190 187 210 216 240 244 262 261 254 260 235 307 35 321 119 99 59 50 225 257 121 151 181 180 175 183 183 186 191
305 305 302 306 279 170 150 90 191 207 207 232 198 195 120 167 182 197 203 212 233 246 263 198 265 234 47 33 351 306 308 343 95 18 308 17 307 153 177 198 180 185 189 191 197
304 300 295 286 229 156 151 239 359 339 221 222 233 237 213 211 199 205 197 214 211 242 220 263 236 16 47 265 263 258 246 76 120 124 295 298 282 286 152 191 207 187 192 197 198
303 293 282 249 186 163 186 231 306 324 252 184 211 223 208 209 224 201 205 218 247 235 242 257 73 76 228 222 254 229 344 12 325 312 246 240 229 231 189 177 190 213 199 203 198
302 285 249 156 133 180 184 218 310 245 262 164 198 218 198 215 227 234 200 227 229 260 229 259 259 205 223 250 267 308 24 311 295 301 314 268 124 159 242 172 177 206 205 206 204
302 273 218 182 181 206 166 298 244 195 253 133 168 157 190 202 118 197 211 215 255 211 263 194 216 218 242 251 18 302 328 298 293 281 243 170 262 93 167 197 180 200 202 212 204
299 261 216 210 202 198 227 246 187 228 244 155 150 191 182 206 200 141 194 222 235 257 209 276 276 257 244 20 260 299 272 244 228 233 222 103 291 125 77 18 297 284 233 222 212
296 256 217 200 178 219 239 208 213 241 128 157 178 182 193 186 197 189 197 197 205 207 216 212 224 222 253 247 220 241 252 254 239 215 88 83 273 79 56 36 347 303 262 241 228
295 252 224 201 215 205 217 228 241 211 201 131 180 179 198 185 209 199 196 209 218 233 251 208 189 203 187 244 302 282 319 325 223 334 114 147 345 78 24 44 19 8 6 274 244
296 254 227 226 204 194 226 225 216 257 209 206 176 193 201 197 211 201 210 215 200 222 251 203 117 137 228 213 272 145 256 18 286 176 252 118 92 139 52 34 33 40 38 35 151
268 231 227 202 191 195 231 242 244 318 320 247 203 203 196 196 202 199 197 211 200 211 268 173 125 170 161 203 211 296 351 263 237 334 308 110 201 82 49 27 50 37 46 61 71
220 215 172 190 180 210 226 234 243 238 242 261 222 192 221 189 201 193 190 197 211 191 226 230 160 155 181 216 199 193 207 209 289 333 322 290 85 93 93 57 50 69 54 53 57
238 220 178 172 198 220 228 241 318 267 215 251 286 275 224 196 198 206 214 200 200 176 204 248 266 161 208 93 320 317 345 281 316 82 44 301 356 100 90 33 58 73 64 65 69
241 207 183 185 221 221 227 246 227 251 237 221 233 249 241 228 200 226 212 120 173 204 206 219 252 152 169 179 206 253 210 287 299 274 178 299 109 91 93 43 39 11 73 74 76
269 206 167 208 240 277 221 227 236 223 272 259 246 227 237 234 200 210 180 159 194 222 8 300 249 229 205 214 193 195 227 239 293 296 337 286 304 50 124 83 1 6 10 90 101
236 242 201 188 221 236 257 226 229 222 210 216 236 247 218 214 205 211 193 160 191 183 217 239 243 269 260 45 231 218 237 210 236 294 301 332 328 320 34 42 339 15 6 313 98
291 265 245 260 212 217 231 249 242 223 232 217 233 215 230 218 204 204 204 172 189 177 221 222 256 280 239 212 246 256 245 259 262 274 276 288 289 278 98 291 317 357 352 9 8
316 281 272 253 252 224 220 216 240 245 235 244 256 244 223 233 218 239 200 200 192 190 214 227 238 219 243 225 231 244 247 257 271 254 268 251 281 56 311 322 12 331 355 26 33
Height
1533 1532 1532 1531 1531 1531 1530 1530 1530 1530 1530 1530 1530 1530 1530 1530 1530 1530 1531 1530 1528 1526 1526 1529 1530 1529 1525 1519 1518 1515 1506 1512 1510 1517 1521 1519 1521 1524 1526 1530 1531 1532 1537 1546 1552
1533 1533 1532 1532 1531 1531 1530 1530 1530 1530 1530 1530 1530 1530 1530 1530 1529 1530 1532 1529 1528 1527 1525 1528 1524 1521 1517 1514 1508 1508 1513 1517 1512 1512 1519 1518 1519 1525 1526 1529 1534 1535 1540 1548 1553
1534 1533 1532 1531 1531 1530 1530 1530 1530 1530 1530 1530 1530 1530 1530 1529 1529 1530 1530 1529 1528 1527 1528 1528 1522 1514 1509 1510 1507 1507 1515 1514 1516 1518 1519 1520 1524 1523 1526 1526 1533 1538 1544 1550 1554
1535 1533 1532 1531 1531 1530 1530 1530 1530 1530 1530 1531 1530 1530 1530 1530 1525 1529 1529 1529 1528 1527 1530 1524 1515 1508 1508 1510 1511 1514 1516 1515 1520 1523 1521 1521 1524 1523 1524 1525 1533 1540 1546 1550 1554
1535 1534 1532 1531 1531 1530 1530 1529 1529 1529 1530 1530 1531 1531 1531 1530 1529 1529 1529 1529 1528 1530 1530 1526 1520 1513 1512 1512 1509 1512 1518 1518 1521 1523 1521 1523 1523 1525 1529 1531 1536 1542 1547 1550 1554
1535 1534 1532 1531 1530 1530 1530 1529 1529 1529 1530 1530 1531 1531 1532 1529 1530 1529 1529 1530 1532 1532 1530 1527 1525 1521 1515 1514 1513 1515 1515 1518 1520 1520 1521 1520 1523 1521 1532 1534 1538 1543 1546 1550 1553
1534 1533 1532 1531 1529 1529 1530 1529 1528 1528 1529 1531 1531 1531 1532 1530 1531 1531 1531 1533 1533 1532 1530 1529 1527 1521 1517 1512 1515 1513 1512 1511 1516 1518 1517 1518 1522 1520 1531 1535 1539 1543 1546 1550 1553
1533 1533 1532 1531 1530 1529 1529 1529 1529 1528 1529 1530 1531 1532 1528 1529 1531 1531 1532 1533 1532 1532 1531 1530 1527 1522 1515 1514 1509 1505 1504 1513 1513 1515 1520 1524 1526 1524 1530 1534 1538 1541 1546 1549 1552
1533 1532 1531 1530 1530 1529 1528 1528 1528 1529 1529 1531 1533 1533 1526 1528 1530 1531 1532 1532 1532 1532 1531 1529 1527 1520 1514 1505 1503 1496 1515 1513 1515 1512 1512 1520 1517 1522 1527 1529 1535 1539 1543 1547 1551
1532 1531 1530 1530 1529 1529 1528 1528 1528 1529 1530 1532 1532 1536 1527 1526 1528 1530 1531 1531 1531 1530 1529 1527 1522 1514 1504 1503 1519 1520 1511 1514 1518 1512 1507 1506 1508 1519 1523 1524 1530 1537 1540 1545 1549
1531 1530 1530 1529 1529 1529 1529 1530 1532 1532 1530 1522 1522 1521 1524 1526 1528 1529 1530 1531 1530 1529 1522 1519 1519 1514 1505 1513 1514 1512 1514 1516 1512 1513 1512 1509 1507 1508 1520 1523 1525 1532 1536 1541 1546
1530 1529 1529 1528 1528 1528 1529 1530 1528 1530 1523 1524 1524 1523 1525 1526 1525 1526 1529 1529 1527 1523 1517 1520 1520 1506 1514 1516 1515 1513 1513 1509 1509 1512 1515 1511 1513 1505 1510 1519 1522 1526 1532 1536 1542
1529 1528 1528 1528 1528 1529 1530 1530 1528 1529 1523 1516 1521 1521 1523 1525 1521 1521 1527 1525 1521 1520 1514 1516 1507 1512 1517 1514 1515 1507 1510 1516 1519 1511 1504 1510 1512 1509 1503 1509 1518 1522 1526 1531 1535
1528 1528 1527 1528 1531 1530 1530 1529 1529 1528 1517 1509 1516 1516 1520 1521 1518 1518 1521 1522 1520 1518 1513 1512 1508 1517 1517 1516 1510 1510 1509 1512 1514 1517 1519 1501 1525 1508 1501 1503 1512 1514 1519 1524 1529
1527 1527 1527 1528 1527 1531 1531 1530 1529 1530 1525 1498 1506 1509 1513 1516 1511 1517 1520 1521 1518 1515 1518 1512 1513 1519 1519 1511 1508 1512 1508 1510 1511 1514 1505 1508 1508 1510 1500 1507 1503 1508 1510 1515 1522
1526 1526 1527 1528 1528 1529 1530 1529 1530 1527 1518 1498 1500 1506 1508 1510 1509 1512 1519 1521 1517 1513 1514 1510 1515 1512 1509 1509 1512 1509 1510 1504 1500 1500 1516 1507 1505 1506 1508 1510 1507 1504 1506 1509 1512
1524 1524 1525 1525 1529 1529 1530 1530 1523 1516 1489 1496 1497 1499 1502 1504 1505 1510 1514 1515 1517 1527 1521 1513 1512 1512 1513 1514 1507 1508 1502 1511 1521 1511 1520 1503 1510 1508 1505 1504 1505 1505 1504 1506 1509
1523 1523 1522 1524 1526 1527 1530 1525 1521 1486 1485 1483 1489 1494 1500 1495 1500 1504 1508 1510 1507 1503 1501 1514 1522 1506 1507 1509 1505 1501 1498 1507 1542 1526 1516 1506 1519 1514 1501 1503 1504 1502 1502 1502 1502
1521 1521 1521 1523 1524 1526 1528 1518 1503 1485 1475 1485 1487 1496 1498 1492 1495 1501 1502 1502 1498 1501 1501 1500 1510 1503 1506 1503 1504 1503 1508 1496 1505 1498 1505 1505 1504 1502 1502 1505 1506 1506 1507 1504 1502
1520 1523 1521 1522 1523 1527 1523 1511 1489 1487 1487 1483 1491 1487 1495 1492 1502 1499 1500 1493 1494 1497 1492 1490 1516 1503 1507 1508 1507 1506 1502 1511 1499 1533 1539 1515 1516 1524 1513 1512 1508 1511 1511 1511 1511
1519 1518 1517 1520 1524 1524 1513 1500 1492 1493 1496 1490 1483 1483 1483 1487 1493 1494 1491 1487 1491 1495 1499 1488 1496 1513 1508 1508 1502 1506 1505 1504 1500 1508 1528 1528 1521 1501 1511 1511 1509 1515 1518 1519 1518
1517 1512 1514 1518 1521 1513 1504 1495 1495 1495 1495 1493 1484 1477 1479 1478 1488 1487 1488 1488 1492 1493 1503 1492 1486 1511 1507 1497 1500 1501 1500 1501 1511 1521 1507 1522 1521 1501 1509 1510 1511 1515 1521 1523 1524
1513 1507 1513 1516 1509 1500 1499 1493 1494 1494 1490 1488 1487 1482 1476 1476 1489 1482 1481 1487 1491 1494 1497 1494 1494 1507 1511 1507 1504 1508 1502 1501 1501 1499 1520 1529 1518 1501 1507 1512 1517 1518 1520 1525 1526
1512 1503 1509 1512 1505 1494 1489 1493 1495 1495 1491 1485 1482 1480 1479 1478 1477 1484 1482 1493 1498 1496 1500 1498 1487 1489 1507 1501 1492 1510 1506 1506 1508 1514 1509 1509 1508 1501 1506 1515 1521 1522 1522 1522 1527
1511 1496 1492 1497 1499 1497 1490 1485 1489 1486 1490 1488 1486 1480 1479 1481 1479 1481 1481 1490 1497 1499 1501 1499 1498 1486 1483 1489 1494 1498 1502 1504 1514 1512 1521 1509 1513 1510 1510 1518 1524 1524 1526 1522 1525
1508 1504 1497 1494 1487 1492 1492 1489 1487 1482 1481 1486 1486 1478 1474 1475 1476 1481 1480 1485 1491 1497 1498 1493 1498 1488 1497 1494 1496 1504 1500 1501 1503 1506 1509 1514 1516 1507 1512 1518 1521 1526 1527 1525 1527
1510 1509 1507 1489 1488 1485 1485 1486 1485 1484 1481 1483 1478 1475 1474 1470 1470 1472 1474 1478 1480 1489 1493 1491 1490 1495 1509 1493 1501 1514 1502 1500 1499 1499 1505 1517 1507 1508 1514 1519 1522 1528 1526 1529 1528